Time,TemperatureF,DewpointF,PressureIn,WindDirection,WindDirectionDegrees,WindSpeedMPH,WindSpeedGustMPH,Humidity,HourlyPrecipIn,Conditions,Clouds,dailyrainin,SoftwareType,DateUTC
2013-01-15 18:31:00,32.1,28.9,30.22,WNW,287,0.0,0.0,88,0.00,,,0.12,Wunderground v.1.15,2013-01-15 23:31:00,
2013-01-15 18:37:00,31.8,28.9,30.22,WNW,287,0.0,0.0,89,0.00,,,0.12,Wunderground v.1.15,2013-01-15 23:37:00,
2013-01-15 18:38:00,31.7,28.8,30.21,WNW,287,0.0,0.0,89,0.00,,,0.12,Wunderground v.1.15,2013-01-15 23:38:00,
2013-01-15 18:42:00,31.7,28.8,30.22,WNW,287,0.0,0.0,89,0.00,,,0.12,Wunderground v.1.15,2013-01-15 23:42:00,
2013-01-15 18:43:00,31.7,28.8,30.22,WNW,287,0.0,0.0,89,0.00,,,0.12,Wunderground v.1.15,2013-01-15 23:43:00,
2013-01-15 18:47:00,31.7,29.1,30.22,WNW,287,0.0,0.0,90,0.00,,,0.12,Wunderground v.1.15,2013-01-15 23:47:00,
2013-01-15 18:49:00,31.6,29.0,30.22,WNW,287,0.0,0.0,90,0.00,,,0.12,Wunderground v.1.15,2013-01-15 23:49:00,
2013-01-15 18:50:00,31.6,29.0,30.22,WNW,287,0.0,0.0,90,0.00,,,0.12,Wunderground v.1.15,2013-01-15 23:50:00,
2013-01-15 18:52:00,31.6,29.0,30.22,WNW,287,0.0,0.0,90,0.00,,,0.12,Wunderground v.1.15,2013-01-15 23:52:00,
2013-01-15 18:54:00,31.6,29.0,30.22,WNW,287,0.0,0.0,90,0.00,,,0.12,Wunderground v.1.15,2013-01-15 23:54:00,
2013-01-15 18:55:00,31.6,29.0,30.22,WNW,287,0.0,0.0,90,0.00,,,0.12,Wunderground v.1.15,2013-01-15 23:55:00,
2013-01-15 18:57:00,31.6,29.0,30.22,WNW,287,0.0,0.0,90,0.00,,,0.12,Wunderground v.1.15,2013-01-15 23:57:00,
2013-01-15 18:59:00,31.6,29.3,30.22,WNW,287,0.0,0.0,91,0.00,,,0.12,Wunderground v.1.15,2013-01-15 23:59:00,
2013-01-15 19:00:00,31.6,29.3,30.22,WNW,287,0.0,0.0,91,0.00,,,0.12,Wunderground v.1.15,2013-01-16 00:00:00,
2013-01-15 19:02:00,31.6,29.3,30.22,WNW,287,0.0,0.0,91,0.00,,,0.12,Wunderground v.1.15,2013-01-16 00:02:00,
2013-01-15 19:04:00,31.6,29.3,30.22,WNW,287,0.0,0.0,91,0.00,,,0.12,Wunderground v.1.15,2013-01-16 00:04:00,
2013-01-15 19:05:00,31.6,29.3,30.22,WNW,287,0.0,0.0,91,0.00,,,0.12,Wunderground v.1.15,2013-01-16 00:05:00,
2013-01-15 19:07:00,31.7,29.4,30.22,WNW,287,0.0,0.0,91,0.00,,,0.12,Wunderground v.1.15,2013-01-16 00:07:00,
2013-01-15 19:09:00,31.7,29.4,30.22,WNW,287,0.0,0.0,91,0.00,,,0.12,Wunderground v.1.15,2013-01-16 00:09:00,
2013-01-15 19:10:00,31.7,29.4,30.22,WNW,287,0.0,0.0,91,0.00,,,0.12,Wunderground v.1.15,2013-01-16 00:10:00,
2013-01-15 19:12:00,31.8,29.5,30.21,WNW,287,0.0,0.0,91,0.00,,,0.12,Wunderground v.1.15,2013-01-16 00:12:00,
2013-01-15 19:14:00,31.8,29.2,30.21,West,278,0.0,1.0,90,0.00,,,0.12,Wunderground v.1.15,2013-01-16 00:14:00,
2013-01-15 19:15:00,31.8,29.2,30.21,West,278,0.0,1.0,90,0.00,,,0.12,Wunderground v.1.15,2013-01-16 00:15:00,
2013-01-15 19:17:00,31.9,29.3,30.22,West,278,0.0,1.0,90,0.00,,,0.12,Wunderground v.1.15,2013-01-16 00:17:00,
2013-01-15 19:20:00,32.0,29.4,30.22,West,278,0.0,1.0,90,0.00,,,0.12,Wunderground v.1.15,2013-01-16 00:20:00,
2013-01-15 19:21:00,32.0,29.4,30.21,West,281,0.0,1.0,90,0.00,,,0.12,Wunderground v.1.15,2013-01-16 00:21:00,
2013-01-15 19:22:00,32.1,29.5,30.21,West,281,0.0,1.0,90,0.00,,,0.12,Wunderground v.1.15,2013-01-16 00:22:00,
2013-01-15 19:25:00,32.2,29.3,30.22,West,281,0.0,1.0,89,0.00,,,0.12,Wunderground v.1.15,2013-01-16 00:25:00,
2013-01-15 19:26:00,32.3,29.4,30.22,West,281,0.0,1.0,89,0.00,,,0.12,Wunderground v.1.15,2013-01-16 00:26:00,
2013-01-15 19:28:00,32.4,29.0,30.22,West,281,0.0,1.0,87,0.00,,,0.12,Wunderground v.1.15,2013-01-16 00:28:00,
2013-01-15 19:30:00,32.6,29.2,30.22,West,281,0.0,1.0,87,0.00,,,0.12,Wunderground v.1.15,2013-01-16 00:30:00,
2013-01-15 19:31:00,32.7,29.0,30.22,West,281,0.0,0.0,86,0.00,,,0.12,Wunderground v.1.15,2013-01-16 00:31:00,
2013-01-15 19:32:00,32.8,29.1,30.22,West,281,0.0,0.0,86,0.00,,,0.12,Wunderground v.1.15,2013-01-16 00:32:00,
2013-01-15 19:33:00,32.8,29.1,30.22,West,281,0.0,0.0,86,0.00,,,0.12,Wunderground v.1.15,2013-01-16 00:33:00,
2013-01-15 19:35:00,32.9,29.2,30.22,West,281,0.0,0.0,86,0.00,,,0.12,Wunderground v.1.15,2013-01-16 00:35:00,
2013-01-15 20:07:00,33.7,28.8,30.22,West,259,0.0,0.0,82,0.00,,,0.12,Wunderground v.1.15,2013-01-16 01:07:00,
2013-01-15 20:12:00,33.7,28.5,30.22,West,259,0.0,0.0,81,0.00,,,0.12,Wunderground v.1.15,2013-01-16 01:12:00,
2013-01-15 20:17:00,33.9,29.0,30.22,West,259,0.0,0.0,82,0.00,,,0.12,Wunderground v.1.15,2013-01-16 01:17:00,
2013-01-15 20:18:00,33.9,29.0,30.22,West,259,0.0,0.0,82,0.00,,,0.12,Wunderground v.1.15,2013-01-16 01:18:00,
2013-01-15 20:22:00,34.0,30.0,30.21,West,259,0.0,0.0,85,0.00,,,0.12,Wunderground v.1.15,2013-01-16 01:22:00,
2013-01-15 20:23:00,34.0,30.0,30.21,West,259,0.0,0.0,85,0.00,,,0.12,Wunderground v.1.15,2013-01-16 01:23:00,
2013-01-15 20:27:00,34.0,30.0,30.21,West,259,0.0,0.0,85,0.00,,,0.12,Wunderground v.1.15,2013-01-16 01:27:00,
2013-01-15 20:28:00,34.0,30.0,30.21,West,259,0.0,0.0,85,0.00,,,0.12,Wunderground v.1.15,2013-01-16 01:28:00,
2013-01-15 20:32:00,33.9,30.4,30.21,West,259,0.0,0.0,87,0.00,,,0.12,Wunderground v.1.15,2013-01-16 01:32:00,
2013-01-15 20:33:00,33.9,30.4,30.21,West,259,0.0,0.0,87,0.00,,,0.12,Wunderground v.1.15,2013-01-16 01:33:00,
2013-01-15 20:37:00,33.7,30.2,30.21,West,259,0.0,0.0,87,0.00,,,0.12,Wunderground v.1.15,2013-01-16 01:37:00,
2013-01-15 20:38:00,33.7,30.2,30.21,West,259,0.0,0.0,87,0.00,,,0.12,Wunderground v.1.15,2013-01-16 01:38:00,